User: anonymous   Login
Location: ??????????
(48.5701°N, 37.7703°E)
Time: 13:45:56
(UTC+00:00)
Language:

SL-19 R/B - Orbit

View from above orbital plane
View from above orbital plane
View from above satellite
View from above satellite

Ground track
Ground track

The orbit data is extracted from the following two-line orbital elements,

1 37363U 11005B   20262.50400279 -.00000053 +00000-0 +33917-5 0  9995
2 37363 099.4228 236.7845 0322661 248.7555 107.8919 14.94534193521319
Epoch (UTC): 18 September 2020 12:05:45
Eccentricity: 0.0322661
inclination: 99.4228°
perigee height: 359 km
apogee height: 808 km
right ascension of ascending node: 236.7845°
argument of perigee: 248.7555°
revolutions per day: 14.94534193
mean anomaly at epoch: 107.8919°
orbit number at epoch: 52131

The dashed part of the orbit path shows where the satellite is in the earth's shadow,  

DLR